Lake Charles Regional, LA

10:12 AM CDT on May 27, 2017 (GMT -0500)
Lake Charles Regional

Weather History for KLCH - May, 2013

Change the Weather History Date:

Friday, May 31, 2013

  Actual Average Record
Temperature  
Mean Temperature 84 °F 79 °F  
Max Temperature 89 °F 88 °F 100 °F (1911)
Min Temperature 78 °F 70 °F 52 °F (1984)
Degree Days  
Heating Degree Days 0 0  
Month to date heating degree days 24 0  
Since 1 July heating degree days 1267 1490  
Cooling Degree Days 19 14  
Month to date cooling degree days 293 330  
Year to date cooling degree days 471 538  
Growing Degree Days 33 (Base 50)    
Moisture  
Dew Point 75 °F    
Average Humidity 77    
Maximum Humidity 91    
Minimum Humidity 63    
Precipitation  
Precipitation T in 0.19 in 4.40 in (1981)
Month to date precipitation 5.86 5.20  
Year to date precipitation 29.52 20.88  
Snow  
Snow 0.00 in 0.00 in 0.00 in ()
Month to date snowfall 0.0 0.0  
Since 1 July snowfall 0.0 0.1  
Snow Depth 0.00 in    
Sea Level Pressure  
Sea Level Pressure 29.94 in    
Wind  
Wind Speed 9 mph (South)    
Max Wind Speed 16 mph    
Max Gust Speed 23 mph    
Visibility 10 miles    
Events Rain    
T = Trace of Precipitation, MM = Missing Value Source: NWS Daily Summary

Daily Weather History Graph

Daily Weather History Graph

Search for Another Location

Airport or City:

Trip Planner

Search our weather history database for the weather conditions in past years. The results will help you decide how hot, cold, wet, or windy it might be!

Date:

Astronomy

May. 31, 2013 Rise Set
Actual Time 6:12 AM CDT 8:09 PM CDT
Civil Twilight 5:45 AM CDT 8:36 PM CDT
Nautical Twilight 5:12 AM CDT 9:09 PM CDT
Astronomical Twilight 4:37 AM CDT 9:44 PM CDT
Moon 1:04 AM CDT (5/31) 1:05 PM CDT (5/31)
Length of Visible Light 14h 51m
Length of Day
13h 57m
Waning Gibbous, 51% of the Moon is Illuminated
May 31
Waning Gibbous
May 31
Last Quarter
Jun 8
New
Jun 16
First Quarter
Jun 23
Full

Hourly Weather History & Observations

Time (CDT) Temp. Heat Index Dew Point Humidity Pressure Visibility Wind Dir Wind Speed Gust Speed Precip Events Conditions
12:53 AM 78.1 °F - 75.0 °F 90% 29.95 in 10.0 mi SSE 10.4 mph - N/A   Scattered Clouds
1:02 AM 78.8 °F - 75.2 °F 89% 29.92 in 10.0 mi SSE 9.2 mph - 0.00 in Rain Light Rain
1:53 AM 79.0 °F - 75.0 °F 88% 29.93 in 10.0 mi SSE 10.4 mph - 0.00 in   Mostly Cloudy
2:13 AM 78.8 °F - 75.2 °F 89% 29.90 in 10.0 mi SSE 9.2 mph - N/A   Scattered Clouds
2:53 AM 79.0 °F - 73.9 °F 84% 29.92 in 10.0 mi SSE 10.4 mph - N/A   Partly Cloudy
3:40 AM 78.8 °F - 75.2 °F 89% 29.89 in 10.0 mi SSE 9.2 mph - N/A   Mostly Cloudy
3:53 AM 79.0 °F - 75.0 °F 88% 29.91 in 10.0 mi SSE 8.1 mph - N/A   Overcast
3:59 AM 78.8 °F - 75.2 °F 89% 29.89 in 10.0 mi SSE 8.1 mph - 0.00 in Rain Light Rain
4:08 AM 78.8 °F - 75.2 °F 89% 29.89 in 10.0 mi South 8.1 mph - 0.00 in Rain Light Rain
4:28 AM 78.8 °F - 75.2 °F 89% 29.89 in 10.0 mi South 8.1 mph - 0.00 in   Scattered Clouds
4:53 AM 79.0 °F - 75.0 °F 88% 29.92 in 10.0 mi South 8.1 mph - 0.00 in   Partly Cloudy
5:53 AM 79.0 °F - 75.0 °F 88% 29.93 in 10.0 mi South 6.9 mph - 0.00 in   Mostly Cloudy
6:53 AM 79.0 °F - 75.0 °F 88% 29.95 in 10.0 mi SSE 6.9 mph - N/A   Overcast
7:53 AM 80.1 °F 85.4 °F 75.9 °F 87% 29.96 in 8.0 mi South 6.9 mph - 0.00 in Rain Light Rain
8:18 AM 80.6 °F 86.2 °F 75.2 °F 84% 29.94 in 10.0 mi SSE 10.4 mph - 0.00 in   Overcast
8:53 AM 81.0 °F 87.3 °F 75.9 °F 85% 29.97 in 10.0 mi SSE 13.8 mph - 0.00 in   Overcast
9:09 AM 80.6 °F 86.2 °F 75.2 °F 84% 29.94 in 10.0 mi South 11.5 mph 19.6 mph 0.00 in   Overcast
9:21 AM 82.4 °F 89.5 °F 75.2 °F 79% 29.95 in 10.0 mi South 6.9 mph 16.1 mph 0.00 in   Overcast
9:33 AM 78.8 °F - 73.4 °F 83% 29.95 in 10.0 mi SW 5.8 mph - 0.00 in Rain Light Rain
9:53 AM 81.0 °F 86.7 °F 75.0 °F 82% 29.98 in 10.0 mi South 12.7 mph 17.3 mph 0.00 in Rain Light Rain
10:53 AM 84.0 °F 91.9 °F 75.0 °F 74% 29.97 in 10.0 mi SSW 9.2 mph 21.9 mph 0.00 in   Overcast
11:00 AM 84.2 °F 92.3 °F 75.2 °F 74% 29.95 in 10.0 mi SSW 10.4 mph 21.9 mph N/A   Overcast
11:11 AM 84.2 °F 92.3 °F 75.2 °F 74% 29.95 in 10.0 mi South 13.8 mph 19.6 mph N/A   Overcast
11:22 AM 84.2 °F 92.3 °F 75.2 °F 74% 29.95 in 10.0 mi South 15.0 mph 20.7 mph N/A   Overcast
11:53 AM 86.0 °F 93.8 °F 73.9 °F 67% 29.97 in 10.0 mi SSW 12.7 mph 20.7 mph N/A   Mostly Cloudy
12:19 PM 87.8 °F 95.6 °F 73.4 °F 62% 29.94 in 10.0 mi SSW 10.4 mph 20.7 mph N/A   Mostly Cloudy
12:53 PM 87.1 °F 95.4 °F 73.9 °F 65% 29.96 in 10.0 mi South 10.4 mph - N/A   Mostly Cloudy
1:13 PM 87.8 °F 95.6 °F 73.4 °F 62% 29.94 in 10.0 mi SSW 13.8 mph 21.9 mph N/A   Mostly Cloudy
1:21 PM 87.8 °F 95.6 °F 73.4 °F 62% 29.94 in 10.0 mi SSW 11.5 mph 21.9 mph N/A   Scattered Clouds
1:53 PM 87.1 °F 94.5 °F 73.0 °F 63% 29.96 in 10.0 mi South 10.4 mph 18.4 mph N/A   Mostly Cloudy
2:08 PM 86.0 °F 93.4 °F 73.4 °F 66% 29.93 in 10.0 mi South 12.7 mph 19.6 mph N/A   Mostly Cloudy
2:53 PM 86.0 °F 93.0 °F 73.0 °F 65% 29.95 in 10.0 mi South 12.7 mph 20.7 mph N/A   Overcast
3:53 PM 86.0 °F 93.0 °F 73.0 °F 65% 29.94 in 10.0 mi South 12.7 mph 19.6 mph N/A   Mostly Cloudy
4:53 PM 84.9 °F 91.4 °F 73.0 °F 67% 29.93 in 10.0 mi South 9.2 mph - N/A   Overcast
5:53 PM 84.0 °F 90.2 °F 73.0 °F 69% 29.92 in 10.0 mi South 10.4 mph 16.1 mph N/A   Mostly Cloudy
6:53 PM 84.0 °F 90.2 °F 73.0 °F 69% 29.92 in 10.0 mi South 8.1 mph - N/A   Overcast
7:53 PM 82.0 °F 87.9 °F 73.9 °F 76% 29.93 in 10.0 mi South 8.1 mph - N/A   Overcast
8:53 PM 81.0 °F 86.7 °F 75.0 °F 82% 29.93 in 10.0 mi SSE 8.1 mph - N/A   Overcast
9:53 PM 80.1 °F 85.1 °F 75.0 °F 85% 29.92 in 10.0 mi SSE 8.1 mph 16.1 mph N/A   Clear
10:53 PM 79.0 °F - 75.0 °F 88% 29.92 in 10.0 mi South 8.1 mph - N/A   Clear
11:53 PM 79.0 °F - 75.9 °F 90% 29.92 in 10.0 mi South 6.9 mph - N/A   Partly Cloudy